| time (UTC) | temp F | wind direction | speed knots | gust knots | rain 1hr in | rain 24hr in | rain mn in | humidity % | barometer mb |
| 20260506050925 | 62 | 202 | 0.0 | 0.9 | 0.00 | 0.00 | 0.00 | 84 | 1018.1 |
| 20260506050423 | 62 | 190 | 0.9 | 0.9 | 0.00 | 0.00 | 0.00 | 84 | 1018.2 |
| 20260506044913 | 62 | 234 | 0.0 | 0.9 | 0.00 | 0.00 | 0.00 | 84 | 1018.5 |
| 20260506044411 | 62 | 173 | 0.9 | 1.7 | 0.00 | 0.00 | 0.00 | 84 | 1018.5 |
| 20260506043908 | 62 | 162 | 0.9 | 0.9 | 0.00 | 0.00 | 0.00 | 84 | 1018.8 |
| 20260506043405 | 62 | 216 | 0.0 | 0.0 | 0.00 | 0.00 | 0.00 | 84 | 1018.5 |
| 20260506042903 | 62 | 186 | 0.9 | 1.7 | 0.00 | 0.00 | 0.00 | 84 | 1018.5 |
| 20260506042402 | 62 | 252 | 0.9 | 0.9 | 0.00 | 0.00 | 0.00 | 84 | 1018.5 |
| 20260506041900 | 62 | 157 | 0.9 | 1.7 | 0.00 | 0.00 | 0.00 | 83 | 1018.6 |
| 20260506041357 | 62 | 214 | 0.9 | 1.7 | 0.00 | 0.00 | 0.00 | 83 | 1018.5 |
| 20260506040854 | 62 | 164 | 0.9 | 0.9 | 0.00 | 0.00 | 0.00 | 83 | 1018.6 |
| 20260506040352 | 62 | 164 | 0.9 | 0.9 | 0.00 | 0.00 | 0.00 | 83 | 1019.0 |
| 20260506035848 | 62 | 166 | 0.0 | 0.0 | 0.00 | 0.00 | 0.00 | 82 | 1018.9 |
| 20260506035346 | 62 | 190 | 0.9 | 0.9 | 0.00 | 0.00 | 0.00 | 82 | 1018.9 |
| 20260506034842 | 62 | 122 | 0.0 | 0.0 | 0.00 | 0.00 | 0.00 | 82 | 1018.6 |
| 20260506034340 | 63 | 170 | 0.0 | 0.9 | 0.00 | 0.00 | 0.00 | 81 | 1018.8 |
| 20260506033836 | 63 | 161 | 0.9 | 0.9 | 0.00 | 0.00 | 0.00 | 81 | 1018.8 |
| 20260506033333 | 63 | 164 | 0.0 | 0.9 | 0.00 | 0.00 | 0.00 | 80 | 1018.6 |
| 20260506032830 | 63 | 172 | 1.7 | 2.6 | 0.00 | 0.00 | 0.00 | 80 | 1018.8 |
| 20260506032327 | 64 | 249 | 0.0 | 0.9 | 0.00 | 0.00 | 0.00 | 79 | 1018.7 |
| 20260506031824 | 64 | 224 | 1.7 | 1.7 | 0.00 | 0.00 | 0.00 | 79 | 1018.8 |
| 20260506031321 | 64 | 251 | 1.7 | 2.6 | 0.00 | 0.00 | 0.00 | 78 | 1019.0 |
| 20260506030819 | 64 | 189 | 0.9 | 0.9 | 0.00 | 0.00 | 0.00 | 78 | 1018.7 |
| 20260506030317 | 64 | 162 | 0.9 | 0.9 | 0.00 | 0.00 | 0.00 | 77 | 1018.7 |
| 20260506025813 | 64 | 155 | 0.9 | 1.7 | 0.00 | 0.00 | 0.00 | 77 | 1018.7 |
| 20260506025310 | 65 | 196 | 0.9 | 0.9 | 0.00 | 0.00 | 0.00 | 77 | 1018.8 |
| 20260506024807 | 65 | 173 | 0.9 | 0.9 | 0.00 | 0.00 | 0.00 | 76 | 1018.7 |
| 20260506024303 | 65 | 165 | 0.9 | 0.9 | 0.00 | 0.00 | 0.00 | 76 | 1018.8 |
| 20260506023759 | 65 | 186 | 2.6 | 3.5 | 0.00 | 0.00 | 0.00 | 75 | 1018.8 |
| 20260506023257 | 65 | 182 | 1.7 | 1.7 | 0.00 | 0.00 | 0.00 | 75 | 1018.7 |
| 20260506022753 | 65 | 166 | 0.9 | 0.9 | 0.00 | 0.00 | 0.00 | 75 | 1018.7 |
| 20260506022251 | 66 | 251 | 0.9 | 0.9 | 0.00 | 0.00 | 0.00 | 74 | 1018.6 |
| 20260506021749 | 66 | 175 | 0.0 | 0.9 | 0.00 | 0.00 | 0.00 | 74 | 1018.5 |
| 20260506021246 | 66 | 254 | 1.7 | 1.7 | 0.00 | 0.00 | 0.00 | 74 | 1018.5 |
| 20260506020742 | 66 | 187 | 0.9 | 0.9 | 0.00 | 0.00 | 0.00 | 73 | 1018.5 |
| 20260506020240 | 66 | 211 | 1.7 | 1.7 | 0.00 | 0.00 | 0.00 | 74 | 1018.4 |
| 20260506015738 | 66 | 161 | 0.9 | 1.7 | 0.00 | 0.00 | 0.00 | 74 | 1018.5 |
| 20260506015235 | 66 | 164 | 0.9 | 1.7 | 0.00 | 0.00 | 0.00 | 74 | 1018.5 |
| 20260506014732 | 66 | 255 | 1.7 | 2.6 | 0.00 | 0.00 | 0.00 | 74 | 1018.3 |
| 20260506014228 | 67 | 21 | 1.7 | 2.6 | 0.00 | 0.00 | 0.00 | 74 | 1018.3 |
| 20260506013726 | 67 | 165 | 0.0 | 0.9 | 0.00 | 0.00 | 0.00 | 74 | 1018.5 |
| 20260506013223 | 67 | 222 | 0.9 | 0.9 | 0.00 | 0.00 | 0.00 | 74 | 1018.3 |
| 20260506012719 | 67 | 176 | 0.9 | 1.7 | 0.00 | 0.00 | 0.00 | 74 | 1018.3 |
| 20260506012216 | 67 | 127 | 2.6 | 3.5 | 0.00 | 0.00 | 0.00 | 74 | 1018.4 |
| 20260506011713 | 67 | 187 | 1.7 | 2.6 | 0.00 | 0.00 | 0.00 | 74 | 1018.3 |
| 20260506011209 | 68 | 215 | 1.7 | 1.7 | 0.00 | 0.00 | 0.00 | 73 | 1018.3 |
| 20260506010708 | 68 | 110 | 1.7 | 1.7 | 0.00 | 0.00 | 0.00 | 73 | 1018.0 |
| 20260506010205 | 68 | 190 | 1.7 | 1.7 | 0.00 | 0.00 | 0.00 | 72 | 1018.2 |
| 20260506005702 | 68 | 162 | 1.7 | 1.7 | 0.00 | 0.00 | 0.00 | 72 | 1018.1 |
| 20260506005159 | 68 | 134 | 2.6 | 5.2 | 0.00 | 0.00 | 0.00 | 72 | 1017.9 |
| 20260506004655 | 69 | 156 | 1.7 | 1.7 | 0.00 | 0.00 | 0.00 | 72 | 1018.0 |
| 20260506004152 | 69 | 170 | 1.7 | 1.7 | 0.00 | 0.00 | 0.00 | 71 | 1017.8 |
| 20260506003648 | 69 | 167 | 1.7 | 1.7 | 0.00 | 0.00 | 0.00 | 70 | 1017.8 |
| 20260506003145 | 69 | 150 | 2.6 | 3.5 | 0.00 | 0.00 | 0.00 | 70 | 1017.7 |
| 20260506002641 | 69 | 158 | 1.7 | 2.6 | 0.00 | 0.00 | 0.00 | 70 | 1017.6 |
| 20260506002137 | 69 | 215 | 1.7 | 1.7 | 0.00 | 0.00 | 0.00 | 69 | 1017.7 |
| 20260506001633 | 70 | 58 | 1.7 | 2.6 | 0.00 | 0.00 | 0.00 | 69 | 1017.6 |
| 20260506001131 | 70 | 141 | 2.6 | 2.6 | 0.00 | 0.00 | 0.00 | 68 | 1017.4 |
| 20260506000628 | 70 | 245 | 1.7 | 2.6 | 0.00 | 0.00 | 0.00 | 68 | 1017.5 |
| 20260506000125 | 70 | 149 | 1.7 | 2.6 | 0.00 | 0.00 | 0.00 | 67 | 1017.4 |
| 20260505235623 | 71 | 214 | 1.7 | 2.6 | 0.00 | 0.00 | 0.00 | 67 | 1017.5 |
| 20260505235120 | 71 | 193 | 1.7 | 1.7 | 0.00 | 0.00 | 0.00 | 66 | 1017.5 |
| 20260505234617 | 71 | 249 | 2.6 | 3.5 | 0.00 | 0.00 | 0.00 | 66 | 1017.6 |
| 20260505234113 | 71 | 187 | 1.7 | 1.7 | 0.00 | 0.00 | 0.00 | 66 | 1017.6 |
| 20260505233611 | 71 | 137 | 1.7 | 2.6 | 0.00 | 0.00 | 0.00 | 65 | 1017.7 |
| 20260505233108 | 72 | 254 | 1.7 | 2.6 | 0.00 | 0.00 | 0.00 | 65 | 1017.5 |
| 20260505232606 | 72 | 147 | 2.6 | 3.5 | 0.00 | 0.00 | 0.00 | 64 | 1017.5 |
| 20260505232103 | 73 | 199 | 1.7 | 2.6 | 0.00 | 0.00 | 0.00 | 63 | 1017.4 |
| 20260505231600 | 73 | 184 | 1.7 | 2.6 | 0.00 | 0.00 | 0.00 | 63 | 1017.3 |
| 20260505231059 | 74 | 341 | 1.7 | 1.7 | 0.00 | 0.00 | 0.00 | 62 | 1017.4 |
| 20260505230556 | 74 | 190 | 1.7 | 2.6 | 0.00 | 0.00 | 0.00 | 62 | 1017.2 |
| 20260505230052 | 74 | 273 | 0.9 | 1.7 | 0.00 | 0.00 | 0.00 | 62 | 1017.2 |
| 20260505225549 | 74 | 151 | 2.6 | 2.6 | 0.00 | 0.00 | 0.00 | 61 | 1017.0 |
| 20260505225045 | 74 | 289 | 2.6 | 2.6 | 0.00 | 0.00 | 0.00 | 61 | 1017.1 |
| 20260505224542 | 75 | 307 | 0.9 | 1.7 | 0.00 | 0.00 | 0.00 | 61 | 1017.3 |
| 20260505224039 | 75 | 158 | 2.6 | 3.5 | 0.00 | 0.00 | 0.00 | 61 | 1017.4 |
| 20260505223536 | 75 | 239 | 1.7 | 2.6 | 0.00 | 0.00 | 0.00 | 60 | 1017.2 |
| 20260505223032 | 75 | 142 | 1.7 | 2.6 | 0.00 | 0.00 | 0.00 | 59 | 1017.1 |
| 20260505222529 | 76 | 99 | 1.7 | 2.6 | 0.00 | 0.00 | 0.00 | 58 | 1017.2 |
| 20260505222025 | 76 | 131 | 0.9 | 0.9 | 0.00 | 0.00 | 0.00 | 59 | 1016.9 |
| 20260505221522 | 76 | 152 | 0.9 | 0.9 | 0.00 | 0.00 | 0.00 | 57 | 1017.0 |
| 20260505221019 | 77 | 161 | 2.6 | 2.6 | 0.00 | 0.00 | 0.00 | 56 | 1017.1 |
| 20260505220516 | 77 | 10 | 1.7 | 2.6 | 0.00 | 0.00 | 0.00 | 55 | 1017.3 |
| 20260505220014 | 77 | 131 | 1.7 | 2.6 | 0.00 | 0.00 | 0.00 | 55 | 1017.1 |
| 20260505215512 | 77 | 194 | 1.7 | 2.6 | 0.00 | 0.00 | 0.00 | 55 | 1017.1 |
| 20260505215009 | 77 | 193 | 2.6 | 5.2 | 0.00 | 0.00 | 0.00 | 55 | 1017.1 |
| 20260505214508 | 77 | 141 | 1.7 | 1.7 | 0.00 | 0.00 | 0.00 | 54 | 1017.0 |
| 20260505214004 | 77 | 147 | 3.5 | 5.2 | 0.00 | 0.00 | 0.00 | 54 | 1017.2 |
| 20260505213502 | 78 | 180 | 2.6 | 3.5 | 0.00 | 0.00 | 0.00 | 53 | 1017.1 |
| 20260505212958 | 78 | 217 | 0.9 | 1.7 | 0.00 | 0.00 | 0.00 | 54 | 1016.9 |
| 20260505212454 | 78 | 131 | 3.5 | 5.2 | 0.00 | 0.00 | 0.00 | 53 | 1017.3 |
| 20260505211951 | 78 | 175 | 3.5 | 3.5 | 0.00 | 0.00 | 0.00 | 53 | 1017.1 |
| 20260505211449 | 78 | 238 | 2.6 | 3.5 | 0.00 | 0.00 | 0.00 | 53 | 1017.1 |
| 20260505210945 | 78 | 165 | 0.0 | 0.9 | 0.00 | 0.00 | 0.00 | 54 | 1017.0 |
| 20260505210442 | 78 | 166 | 1.7 | 2.6 | 0.00 | 0.00 | 0.00 | 53 | 1016.9 |
| 20260505205938 | 78 | 177 | 3.5 | 3.5 | 0.00 | 0.00 | 0.00 | 52 | 1016.9 |
| 20260505205437 | 79 | 179 | 1.7 | 1.7 | 0.00 | 0.00 | 0.00 | 52 | 1017.0 |
| 20260505204933 | 78 | 136 | 2.6 | 3.5 | 0.00 | 0.00 | 0.00 | 52 | 1016.6 |
| 20260505204431 | 78 | 31 | 0.9 | 1.7 | 0.00 | 0.00 | 0.00 | 52 | 1016.8 |
| 20260505203929 | 79 | 274 | 0.9 | 1.7 | 0.00 | 0.00 | 0.00 | 53 | 1016.8 |
| 20260505203425 | 80 | 175 | 2.6 | 2.6 | 0.00 | 0.00 | 0.00 | 51 | 1016.9 |
| 20260505202921 | 79 | 147 | 1.7 | 2.6 | 0.00 | 0.00 | 0.00 | 52 | 1016.9 |
| 20260505202417 | 79 | 148 | 3.5 | 6.1 | 0.00 | 0.00 | 0.00 | 52 | 1016.9 |
| 20260505201914 | 78 | 232 | 1.7 | 1.7 | 0.00 | 0.00 | 0.00 | 52 | 1017.1 |
| 20260505201411 | 78 | 168 | 1.7 | 2.6 | 0.00 | 0.00 | 0.00 | 51 | 1017.3 |
| 20260505200910 | 79 | 162 | 4.3 | 6.1 | 0.00 | 0.00 | 0.00 | 51 | 1017.1 |
| 20260505200406 | 79 | 209 | 1.7 | 2.6 | 0.00 | 0.00 | 0.00 | 51 | 1017.2 |
| 20260505195901 | 79 | 194 | 1.7 | 2.6 | 0.00 | 0.00 | 0.00 | 52 | 1017.2 |
| 20260505195359 | 80 | 229 | 1.7 | 1.7 | 0.00 | 0.00 | 0.00 | 50 | 1017.4 |
| 20260505194856 | 80 | 236 | 0.9 | 0.9 | 0.00 | 0.00 | 0.00 | 50 | 1017.3 |
| 20260505194354 | 80 | 145 | 2.6 | 2.6 | 0.00 | 0.00 | 0.00 | 47 | 1017.4 |
| 20260505193854 | 80 | 247 | 1.7 | 1.7 | 0.00 | 0.00 | 0.00 | 48 | 1017.5 |
| 20260505193352 | 79 | 272 | 0.9 | 1.7 | 0.00 | 0.00 | 0.00 | 49 | 1017.7 |
| 20260505192849 | 80 | 247 | 1.7 | 5.2 | 0.00 | 0.00 | 0.00 | 48 | 1017.9 |
| 20260505192348 | 80 | 188 | 2.6 | 2.6 | 0.00 | 0.00 | 0.00 | 49 | 1017.9 |
| 20260505191845 | 79 | 149 | 0.9 | 1.7 | 0.00 | 0.00 | 0.00 | 48 | 1017.9 |
| 20260505191343 | 78 | 215 | 1.7 | 1.7 | 0.00 | 0.00 | 0.00 | 48 | 1018.1 |
| 20260505190840 | 80 | 204 | 1.7 | 1.7 | 0.00 | 0.00 | 0.00 | 48 | 1018.0 |
| 20260505190335 | 79 | 150 | 0.9 | 1.7 | 0.00 | 0.00 | 0.00 | 49 | 1018.2 |
| 20260505185831 | 79 | 158 | 1.7 | 1.7 | 0.00 | 0.00 | 0.00 | 49 | 1018.4 |
| 20260505185328 | 79 | 254 | 1.7 | 2.6 | 0.00 | 0.00 | 0.00 | 49 | 1018.3 |
| 20260505184824 | 79 | 283 | 1.7 | 1.7 | 0.00 | 0.00 | 0.00 | 50 | 1018.4 |
| 20260505184321 | 79 | 114 | 1.7 | 1.7 | 0.00 | 0.00 | 0.00 | 49 | 1018.5 |
| 20260505183818 | 79 | 204 | 1.7 | 1.7 | 0.00 | 0.00 | 0.00 | 48 | 1018.5 |
| 20260505183315 | 79 | 255 | 1.7 | 2.6 | 0.00 | 0.00 | 0.00 | 48 | 1018.5 |
| 20260505182812 | 80 | 247 | 2.6 | 2.6 | 0.00 | 0.00 | 0.00 | 48 | 1018.4 |
| 20260505182308 | 79 | 179 | 1.7 | 1.7 | 0.00 | 0.00 | 0.00 | 49 | 1018.3 |
| 20260505181805 | 78 | 140 | 1.7 | 2.6 | 0.00 | 0.00 | 0.00 | 50 | 1018.5 |
| 20260505181302 | 79 | 226 | 3.5 | 5.2 | 0.00 | 0.00 | 0.00 | 48 | 1018.6 |
| 20260505180759 | 79 | 228 | 2.6 | 3.5 | 0.00 | 0.00 | 0.00 | 49 | 1018.7 |
| 20260505180255 | 79 | 286 | 0.9 | 0.9 | 0.00 | 0.00 | 0.00 | 49 | 1018.5 |
| 20260505175752 | 78 | 142 | 0.0 | 0.9 | 0.00 | 0.00 | 0.00 | 48 | 1018.7 |
| 20260505175248 | 79 | 190 | 0.9 | 0.9 | 0.00 | 0.00 | 0.00 | 49 | 1018.9 |
| 20260505174745 | 79 | 260 | 0.9 | 0.9 | 0.00 | 0.00 | 0.00 | 49 | 1018.7 |
| 20260505174242 | 79 | 260 | 2.6 | 5.2 | 0.00 | 0.00 | 0.00 | 49 | 1018.7 |
| 20260505173738 | 78 | 162 | 2.6 | 2.6 | 0.00 | 0.00 | 0.00 | 50 | 1018.6 |
| 20260505173235 | 79 | 284 | 0.0 | 0.9 | 0.00 | 0.00 | 0.00 | 48 | 1018.9 |
| 20260505172732 | 78 | 179 | 2.6 | 2.6 | 0.00 | 0.00 | 0.00 | 49 | 1019.0 |
| 20260505172229 | 79 | 216 | 2.6 | 3.5 | 0.00 | 0.00 | 0.00 | 49 | 1018.9 |
| 20260505171729 | 79 | 262 | 1.7 | 2.6 | 0.00 | 0.00 | 0.00 | 52 | 1019.0 |
| 20260505171226 | 78 | 308 | 0.9 | 0.9 | 0.00 | 0.00 | 0.00 | 53 | 1018.9 |
| 20260505170723 | 79 | 282 | 0.9 | 0.9 | 0.00 | 0.00 | 0.00 | 53 | 1019.1 |
| 20260505170220 | 78 | 191 | 1.7 | 2.6 | 0.00 | 0.00 | 0.00 | 52 | 1019.1 |
| 20260505165715 | 78 | 270 | 2.6 | 5.2 | 0.00 | 0.00 | 0.00 | 53 | 1019.0 |
| 20260505165211 | 78 | 279 | 0.9 | 0.9 | 0.00 | 0.00 | 0.00 | 53 | 1019.1 |
| 20260505164707 | 77 | 275 | 0.0 | 0.9 | 0.00 | 0.00 | 0.00 | 54 | 1019.1 |
| 20260505164204 | 77 | 80 | 1.7 | 2.6 | 0.00 | 0.00 | 0.00 | 53 | 1019.3 |
| 20260505163702 | 77 | 248 | 1.7 | 1.7 | 0.00 | 0.00 | 0.00 | 54 | 1019.4 |
| 20260505163200 | 77 | 244 | 2.6 | 2.6 | 0.00 | 0.00 | 0.00 | 55 | 1019.5 |
| 20260505162658 | 77 | 235 | 1.7 | 2.6 | 0.00 | 0.00 | 0.00 | 53 | 1019.6 |
| 20260505162155 | 76 | 234 | 1.7 | 1.7 | 0.00 | 0.00 | 0.00 | 54 | 1019.8 |
| 20260505161651 | 77 | 191 | 2.6 | 3.5 | 0.00 | 0.00 | 0.00 | 54 | 1019.7 |
| 20260505161149 | 75 | 325 | 0.9 | 1.7 | 0.00 | 0.00 | 0.00 | 57 | 1019.8 |
| 20260505160647 | 76 | 299 | 1.7 | 2.6 | 0.00 | 0.00 | 0.00 | 55 | 1019.8 |
| 20260505160144 | 75 | 242 | 2.6 | 3.5 | 0.00 | 0.00 | 0.00 | 57 | 1019.9 |
| 20260505153123 | 76 | 168 | 0.9 | 1.7 | 0.00 | 0.00 | 0.00 | 57 | 1019.9 |
| 20260505152620 | 76 | 233 | 0.9 | 0.9 | 0.00 | 0.00 | 0.00 | 57 | 1019.9 |
| 20260505152115 | 75 | 235 | 1.7 | 1.7 | 0.00 | 0.00 | 0.00 | 59 | 1019.8 |
| 20260505151611 | 74 | 243 | 2.6 | 2.6 | 0.00 | 0.00 | 0.00 | 59 | 1019.9 |
| 20260505151109 | 74 | 305 | 0.9 | 0.9 | 0.00 | 0.00 | 0.00 | 60 | 1020.0 |
| 20260505150605 | 73 | 299 | 3.5 | 3.5 | 0.00 | 0.00 | 0.00 | 60 | 1020.0 |
| 20260505140530 | 72 | 249 | 1.7 | 1.7 | 0.00 | 0.00 | 0.00 | 66 | 1019.8 |
| 20260505124943 | 65 | 292 | 1.7 | 1.7 | 0.00 | 0.00 | 0.00 | 76 | 1020.4 |
| 20260505124440 | 65 | 128 | 1.7 | 1.7 | 0.00 | 0.00 | 0.00 | 75 | 1020.2 |
| 20260505123936 | 65 | 223 | 1.7 | 2.6 | 0.00 | 0.00 | 0.00 | 77 | 1020.1 |
| 20260505123433 | 64 | 261 | 1.7 | 2.6 | 0.00 | 0.00 | 0.00 | 78 | 1020.1 |
| 20260505122929 | 64 | 163 | 0.9 | 1.7 | 0.00 | 0.00 | 0.00 | 77 | 1020.1 |
| 20260505122427 | 64 | 93 | 0.0 | 0.9 | 0.00 | 0.00 | 0.00 | 78 | 1020.2 |
| 20260505121923 | 63 | 147 | 0.9 | 0.9 | 0.00 | 0.00 | 0.00 | 80 | 1020.3 |
| 20260505121420 | 63 | 263 | 0.9 | 0.9 | 0.00 | 0.00 | 0.00 | 79 | 1020.1 |
| 20260505120916 | 63 | 179 | 1.7 | 1.7 | 0.00 | 0.00 | 0.00 | 80 | 1020.2 |
| 20260505120412 | 62 | 254 | 0.9 | 0.9 | 0.00 | 0.00 | 0.00 | 79 | 1020.0 |
| 20260505115911 | 61 | 175 | 0.9 | 0.9 | 0.00 | 0.00 | 0.00 | 82 | 1019.9 |
| 20260505115408 | 61 | 204 | 0.9 | 0.9 | 0.00 | 0.00 | 0.00 | 82 | 1020.0 |
| 20260505114906 | 60 | 147 | 0.0 | 0.0 | 0.00 | 0.00 | 0.00 | 83 | 1020.0 |
| 20260505114402 | 59 | 163 | 1.7 | 1.7 | 0.00 | 0.00 | 0.00 | 84 | 1019.9 |
| 20260505113859 | 59 | 160 | 0.9 | 1.7 | 0.00 | 0.00 | 0.00 | 84 | 1019.8 |
| 20260505113355 | 58 | 153 | 0.9 | 0.9 | 0.00 | 0.00 | 0.00 | 85 | 1019.6 |
| 20260505112851 | 58 | 144 | 0.9 | 0.9 | 0.00 | 0.00 | 0.00 | 85 | 1019.7 |
| 20260505112349 | 57 | 154 | 0.9 | 0.9 | 0.00 | 0.00 | 0.00 | 86 | 1019.8 |
| 20260505111845 | 57 | 160 | 0.9 | 1.7 | 0.00 | 0.00 | 0.00 | 86 | 1019.7 |
| 20260505111340 | 57 | 133 | 0.0 | 0.9 | 0.00 | 0.00 | 0.00 | 87 | 1019.6 |
| 20260505110836 | 56 | 152 | 0.0 | 0.9 | 0.00 | 0.00 | 0.00 | 88 | 1019.5 |
| 20260505110334 | 55 | 160 | 0.9 | 0.9 | 0.00 | 0.00 | 0.00 | 89 | 1019.6 |
| 20260505101809 | 51 | 255 | 0.0 | 0.0 | 0.00 | 0.00 | 0.00 | 95 | 1019.0 |
| 20260505101304 | 51 | 255 | 0.0 | 0.0 | 0.00 | 0.00 | 0.00 | 95 | 1018.9 |
| 20260505100800 | 52 | 255 | 0.0 | 0.0 | 0.00 | 0.00 | 0.00 | 94 | 1018.8 |
| 20260505100257 | 51 | 255 | 0.0 | 0.0 | 0.00 | 0.00 | 0.00 | 94 | 1018.7 |
| 20260505095753 | 51 | 255 | 0.0 | 0.0 | 0.00 | 0.00 | 0.00 | 94 | 1018.8 |
| 20260505095251 | 51 | 255 | 0.0 | 0.0 | 0.00 | 0.00 | 0.00 | 94 | 1018.6 |
| 20260505094746 | 52 | 255 | 0.0 | 0.0 | 0.00 | 0.00 | 0.00 | 93 | 1018.5 |
| 20260505094243 | 52 | 255 | 0.0 | 0.0 | 0.00 | 0.00 | 0.00 | 93 | 1018.7 |
| 20260505093739 | 52 | 255 | 0.0 | 0.0 | 0.00 | 0.00 | 0.00 | 93 | 1018.6 |
| 20260505093237 | 53 | 255 | 0.0 | 0.0 | 0.00 | 0.00 | 0.00 | 92 | 1018.5 |
| 20260505092733 | 53 | 255 | 0.0 | 0.0 | 0.00 | 0.00 | 0.00 | 91 | 1018.6 |
| 20260505092232 | 53 | 255 | 0.0 | 0.0 | 0.00 | 0.00 | 0.00 | 91 | 1018.5 |
| 20260505091729 | 53 | 255 | 0.0 | 0.0 | 0.00 | 0.00 | 0.00 | 91 | 1018.5 |
| 20260505091227 | 53 | 255 | 0.0 | 0.0 | 0.00 | 0.00 | 0.00 | 91 | 1018.4 |
| 20260505090724 | 54 | 255 | 0.0 | 0.0 | 0.00 | 0.00 | 0.00 | 90 | 1018.4 |
| 20260505090222 | 54 | 255 | 0.0 | 0.0 | 0.00 | 0.00 | 0.00 | 90 | 1018.4 |
| 20260505085719 | 54 | 255 | 0.0 | 0.0 | 0.00 | 0.00 | 0.00 | 90 | 1018.4 |
| 20260505085218 | 54 | 256 | 0.0 | 0.0 | 0.00 | 0.00 | 0.00 | 90 | 1018.3 |
| 20260505084714 | 54 | 256 | 0.0 | 0.0 | 0.00 | 0.00 | 0.00 | 89 | 1018.4 |
| 20260505084214 | 54 | 266 | 0.0 | 0.0 | 0.00 | 0.00 | 0.00 | 89 | 1018.0 |
| 20260505083710 | 55 | 266 | 0.0 | 0.0 | 0.00 | 0.00 | 0.00 | 88 | 1018.1 |
| 20260505083207 | 55 | 266 | 0.0 | 0.0 | 0.00 | 0.00 | 0.00 | 87 | 1018.1 |
| 20260505082702 | 55 | 266 | 0.0 | 0.0 | 0.00 | 0.00 | 0.00 | 86 | 1018.1 |
| 20260505082200 | 55 | 266 | 0.0 | 0.0 | 0.00 | 0.00 | 0.00 | 86 | 1018.2 |
| 20260505081655 | 55 | 266 | 0.0 | 0.0 | 0.00 | 0.00 | 0.00 | 86 | 1018.0 |
| 20260505081153 | 55 | 265 | 0.0 | 0.0 | 0.00 | 0.00 | 0.00 | 86 | 1018.1 |
| 20260505080650 | 55 | 267 | 0.0 | 0.0 | 0.00 | 0.00 | 0.00 | 85 | 1018.1 |
| 20260505080146 | 56 | 267 | 0.0 | 0.0 | 0.00 | 0.00 | 0.00 | 85 | 1018.0 |
| 20260505075642 | 56 | 267 | 0.0 | 0.0 | 0.00 | 0.00 | 0.00 | 85 | 1017.9 |
| 20260505075139 | 56 | 267 | 0.0 | 0.0 | 0.00 | 0.00 | 0.00 | 84 | 1018.0 |
| 20260505074636 | 56 | 267 | 0.0 | 0.0 | 0.00 | 0.00 | 0.00 | 84 | 1018.1 |
| 20260505074133 | 56 | 267 | 0.0 | 0.0 | 0.00 | 0.00 | 0.00 | 83 | 1017.7 |
| 20260505073631 | 56 | 268 | 0.0 | 0.0 | 0.00 | 0.00 | 0.00 | 83 | 1018.1 |
| 20260505073129 | 57 | 263 | 0.0 | 0.0 | 0.00 | 0.00 | 0.00 | 83 | 1018.0 |
| 20260505072624 | 56 | 255 | 0.0 | 0.0 | 0.00 | 0.00 | 0.00 | 83 | 1018.1 |
| 20260505072121 | 57 | 255 | 0.0 | 0.0 | 0.00 | 0.00 | 0.00 | 82 | 1017.9 |
| 20260505071616 | 57 | 256 | 0.0 | 0.0 | 0.00 | 0.00 | 0.00 | 82 | 1017.9 |
| 20260505071115 | 57 | 256 | 0.0 | 0.0 | 0.00 | 0.00 | 0.00 | 81 | 1017.9 |
| 20260505070612 | 57 | 260 | 0.0 | 0.0 | 0.00 | 0.00 | 0.00 | 81 | 1017.9 |
| 20260505070108 | 57 | 261 | 0.0 | 0.0 | 0.00 | 0.00 | 0.00 | 81 | 1017.8 |
| 20260505065604 | 57 | 291 | 0.0 | 0.0 | 0.00 | 0.00 | 0.00 | 80 | 1017.7 |
| 20260505065100 | 57 | 276 | 0.0 | 0.0 | 0.00 | 0.00 | 0.00 | 80 | 1017.7 |
| 20260505064557 | 57 | 250 | 0.0 | 0.9 | 0.00 | 0.00 | 0.00 | 80 | 1017.7 |
| 20260505064056 | 57 | 118 | 0.0 | 0.0 | 0.00 | 0.00 | 0.00 | 80 | 1017.9 |
| 20260505063553 | 58 | 243 | 0.0 | 0.0 | 0.00 | 0.00 | 0.00 | 79 | 1017.7 |
| 20260505063048 | 58 | 239 | 0.0 | 0.0 | 0.00 | 0.00 | 0.00 | 79 | 1018.0 |
| 20260505062545 | 58 | 241 | 0.0 | 0.0 | 0.00 | 0.00 | 0.00 | 78 | 1018.1 |
| 20260505062042 | 58 | 249 | 0.0 | 0.0 | 0.00 | 0.00 | 0.00 | 78 | 1017.9 |
| 20260505061540 | 59 | 249 | 0.9 | 0.9 | 0.00 | 0.00 | 0.00 | 77 | 1017.9 |
| 20260505061038 | 59 | 249 | 0.9 | 0.9 | 0.00 | 0.00 | 0.00 | 77 | 1017.9 |
| 20260505060535 | 59 | 232 | 0.0 | 0.0 | 0.00 | 0.00 | 0.00 | 77 | 1018.1 |
| 20260505060031 | 59 | 273 | 0.0 | 0.0 | 0.00 | 0.00 | 0.00 | 77 | 1018.0 |